Terminal Aerodrome Forecast
Issued by NWS Des Moines, IA

Home | Current Version | Previous Version | Text Only | Print | Product List | Glossary On
Versions: 1 2 3 4 5 6 7 8 9 10 11 12 13 14 15 16 17 18 19 20 21 22 23 24 25 26 27 28 29 30 31 32
000
FTUS43 KDMX 281554 AAA
TAFALO
TAF AMD
KALO 281554Z 2816/2912 13008KT 4SM -SHRA BR SCT008 BKN035 OVC060
      TEMPO 2816/2818 BKN007
     FM281800 14010KT 6SM BR SCT009 BKN040 OVC100
     FM290500 15008KT 5SM BR VCTS SCT007 BKN028CB OVC060=

USA.gov is the U.S. government's official web portal to all federal, state and local government web resources and services.